Regional Weather Roundup
Issued by NWS

Home | Current Version | Previous Version | Text Only | Print | Product List | Glossary Off
Versions: 1 2 3 4 5 6 7 8 9 10 11 12 13 14 15 16 17 18 19 20 21 22 23 24 25 26 27 28 29 30 31 32 33 34 35 36 37 38 39 40 41 42 43 44 45 46 47 48 49

000
ASUS43 KDMX 220807
RWRIA

WEATHER ROUNDUP FOR IOWA
NATIONAL WEATHER SERVICE DES MOINES IA
200 AM CST MON DEC 22 2014

NOTE: "FAIR" INDICATES FEW OR NO CLOUDS BELOW 12,000 FEET WITH NO
SIGNIFICANT WEATHER AND/OR OBSTRUCTIONS TO VISIBILITY.

* - THESE STATIONS ARE NOT NWS STATIONS...THUS NOT UNDER NWS
QUALITY CONTROL.  THEY ALSO DO NOT REPORT WEATHER SUCH
AS PRECIPITATION OR FOG.

IAZ001>003-012>014-020>022-031>034-043>046-220900-
   NORTHWEST IOWA

CITY           SKY/WX    TMP DP  RH WIND       PRES   REMARKS
CARROLL *      CLOUDY    41  41 100 S14G20    29.64F FOG
CHEROKEE *     CLOUDY    41  41 100 S13       29.59F FOG
DENISON *      CLOUDY    41  41 100 S17G24    29.59F FOG
LE MARS *      CLOUDY    43  41  93 S15G22    29.56F
ORANGE CITY *  CLOUDY    41  39  93 S12       29.55F FOG
SHELDON *      MIX PCPN  39  39 100 S17G23    29.55F WCI  30
SIOUX CITY     CLOUDY    42  41  96 SE9       29.56F FOG
SPENCER        CLOUDY    40  38  93 S15       29.59F FOG     WCI  32
STORM LAKE *   CLOUDY    39  39 100 S17       29.60F FOG     WCI  30
$$

IAZ055>058-069>071-079>083-090>094-220900-
   SOUTHWEST IOWA

CITY           SKY/WX    TMP DP  RH WIND       PRES   REMARKS
ATLANTIC *     CLOUDY    41  41 100 S14G22    29.64S FOG
AUDUBON *      DRIZZLE   41  36  81 S10G18    29.65F
CLARINDA *     CLOUDY    43  41  93 S12       29.67F
COUNCIL BLFS * CLOUDY    43  43 100 S13       29.60S FOG
CRESTON *      CLOUDY    39  39 100 S13G22    29.68F FOG     WCI  32
HARLAN  *      MIX PCPN  43  43 100 S16       29.65F
LAMONI         CLOUDY    39  38  96 SE14      29.70F WCI  31
RED OAK *      CLOUDY    43  43 100 S15G23    29.64F FOG
SHENANDOAH *   CLOUDY    43  43 100 S15G24    29.64F
$$

IAZ047>049-059>061-072>074-084-220900-
   CENTRAL IOWA

CITY           SKY/WX    TMP DP  RH WIND       PRES   REMARKS
AMES           CLOUDY    40  39  97 S14       29.71S FOG     WCI  32
ANKENY *       CLOUDY    41  41 100 S10G17    29.72S FOG
CHARITON *     CLOUDY    39  37  93 S15       29.73F FOG     WCI  31
DES MOINES     DRIZZLE   42  38  85 S14       29.72F FOG
GRINNELL*      CLOUDY    39  37  93 SE14      29.76F WCI  31
KNOXVILLE *    CLOUDY    41  37  87 S13G18    29.73F
MARSHALLTOWN   CLOUDY    38  37  97 SE13      29.74F FOG     WCI  30
PELLA *        CLOUDY    41  37  87 SE10      29.77S
PERRY *        CLOUDY    41  41 100 S17       29.68S FOG
$$

IAZ004>006-015-016-023>025-035-036-220900-
   NORTH CENTRAL IOWA

CITY           SKY/WX    TMP DP  RH WIND       PRES   REMARKS
ALGONA *       CLOUDY    39  39 100 S17       29.65F FOG     WCI  30
CLARION *      CLOUDY    39  39 100 S18       29.68F FOG     WCI  30
ESTHERVILLE    CLOUDY    38  38 100 S20       29.61F FOG     WCI  28
FORT DODGE *   CLOUDY    39  37  93 SE13G18   29.67F WCI  32
MASON CITY     CLOUDY    37  37 100 SE15      29.72F FOG     WCI  28
FOREST CITY *  RAIN      37  36  93 SE15G21   29.68F WCI  28
IOWA FALLS *   DRIZZLE   39  37  93 SE15      29.72F WCI  31
$$

IAZ007>011-017>019-026>030-037>042-050>054-066-220900-
   NORTHEAST IOWA

CITY           SKY/WX    TMP DP  RH WIND       PRES   REMARKS
CEDAR RAPIDS   CLOUDY    36  34  92 SE13      29.81S FOG     WCI  27
CHARLES CITY * CLOUDY    37  37 100 SE16      29.75F FOG     WCI  28
CLINTON *      CLOUDY    34  30  86 SE14      29.91S WCI  24
DECORAH *      CLOUDY    36  34  93 SE10G18   29.78F FOG     WCI  28
DUBUQUE        CLOUDY    33  30  88 SE14      29.85F FOG     WCI  23
MONTICELLO *   CLOUDY    36  36 100 SE12      29.84S WCI  27
OELWEIN *      CLOUDY    36  34  93 SE15      29.79F FOG     WCI  26
WATERLOO       CLOUDY    37  36  96 S13       29.77F FOG     WCI  29
$$

IAZ064-065-067-068-078-220900-
   EAST CENTRAL IOWA

CITY           SKY/WX    TMP DP  RH WIND       PRES   REMARKS
DAVENPORT      CLOUDY    35  30  82 SE15      29.88F WCI  25
IOWA CITY      CLOUDY    36  33  89 SE9       29.85F WCI  29
MT. PLEASANT * CLOUDY    37  32  81 SE15      29.84F WCI  28
MUSCATINE *    CLOUDY    37  32  81 SE9       29.86F WCI  31
QUAD CITIES    CLOUDY    36  31  82 S14       29.87F WCI  27
$$

IAZ062-063-075>077-085>089-095>099-220900-
   SOUTHEAST IOWA

CITY           SKY/WX    TMP DP  RH WIND       PRES   REMARKS
BURLINGTON     CLOUDY    39  33  79 S9        29.85F WCI  33
FAIRFIELD *    CLOUDY    39  34  81 SE14      29.81F WCI  31
FORT MADISON * CLOUDY    39  36  87 S6        29.86F WCI  35
KEOKUK *       CLOUDY    39  34  81 SE8G15    29.84F WCI  34
OSKALOOSA *    CLOUDY    37  36  93 SE13      29.79S WCI  29
CENTERVILLE *  CLOUDY    39  39 100 SE10      29.77F WCI  32
OTTUMWA        CLOUDY    39  35  86 S15       29.78F WCI  31
WASHINGTON *   CLOUDY    37  37 100 S13       29.82F WCI  29
$$

ABBREVIATIONS USED IN REMARKS
   TC - TEMPERATURES IN CELSIUS
  WCI - WIND CHILL INDEX
   HX - HEAT INDEX
  VSB - VISIBILITY
$$



USA.gov is the U.S. government's official web portal to all federal, state and local government web resources and services.